Вернуться в каталог

CZ-4B DEB

АктивенLEO
NORAD 40532·DEBRIS·🇨🇳 China

Запущен Oct 25, 2013 с Jiuquan Satellite Launch Center

Loading…

Ближайшие Пролёты (ближайшие 24 часа)

TLE

СвежийSource: Space-Track

Эпоха: Sep 14, 2026, 19:34 UTC

1 40532U 13057E   26257.81593688  .00004136  00000-0  73661-3 0  9990
2 40532  74.8691  33.6808 0181121 115.4464 246.5570 14.57114234604548

Отслеживайте CZ-4B DEB в реальном времени с AllMySat

Download on the App Store